Location: Peterborough
(44.3091°N, 78.3197°W)
Time: 06:26:00
(UTC-04:00)

Vanguard 1 Rocket - Pass Details

Date: 23 March 2023
Orbit: 655 x 4220 km, 34.3° (Epoch: 04 June)

Event Time Altitude Azimuth Distance (km) Brightness Sun altitude
Rises 02:14:31 0° 252° (WSW) 7,802 11.9 -43.1°
Enters shadow 02:14:45 - 252° (WSW) 7,748 11.9 -43.1°
Reaches altitude 10° 02:20:40 10° 249° (WSW) 6,315 - -42.8°
Maximum altitude 02:37:25 52° 181° (S) 2,459 - -41.6°
Exits shadow 02:44:26 19° 113° (ESE) 3,005 10.0 -41.0°
Drops below altitude 10° 02:46:08 10° 107° (ESE) 3,431 10.4 -40.8°
Sets 02:48:27 0° 102° (ESE) 4,106 10.9 -40.6°
